Abbotsford, British Columbia

9:20 AM PST on December 15, 2017 (GMT -0800)
Abbotsford

Weather History for CYXX - June, 2013

Change the Weather History Date:

Thursday, June 13, 2013

  Actual Average Record
Temperature  
Mean Temperature 56 °F -  
Max Temperature 66 °F 71 °F 91 °F (2002)
Min Temperature 47 °F 50 °F 45 °F (2015)
Degree Days  
Heating Degree Days 8    
Growing Degree Days 6 (Base 50)    
Moisture  
Dew Point 49 °F    
Average Humidity 77    
Maximum Humidity 100    
Minimum Humidity 41    
Precipitation  
Precipitation 0.00 in 0.08 in - ()
Sea Level Pressure  
Sea Level Pressure 30.17 in    
Wind  
Wind Speed 4 mph ()    
Max Wind Speed 12 mph    
Max Gust Speed -    
Visibility 16.7 miles    
Events Rain    
Averages and records for this station are not official NWS values.
T = Trace of Precipitation, MM = Missing Value Source: Averaged Metar Reports

Daily Weather History Graph

Daily Weather History Graph

Search for Another Location

Airport or City:

Trip Planner

Search our weather history database for the weather conditions in past years. The results will help you decide how hot, cold, wet, or windy it might be!

Date:

Astronomy

Jun. 13, 2013 Rise Set
Actual Time 5:04 AM PDT 9:14 PM PDT
Civil Twilight 4:21 AM PDT 9:57 PM PDT
Nautical Twilight 3:21 AM PDT 10:58 PM PDT
Astronomical Twilight 1:41 AM PDT 12:37 AM PDT
Moon 10:07 AM PDT (6/13) 11:59 PM PDT (6/13)
Length of Visible Light 17h 35m
Length of Day
16h 10m
Waxing Crescent, 22% of the Moon is Illuminated
Jun 13
Waxing Crescent
Jun 16
First Quarter
Jun 23
Full
Jun 29
Last Quarter
Jul 8
New

Hourly Weather History & Observations

Time (PDT) Temp. Dew Point Humidity Pressure Visibility Wind Dir Wind Speed Gust Speed Precip Events Conditions
12:00 AM 48.2 °F 48.2 °F 100% 30.15 in 15.0 mi South 2.3 mph - N/A   Partly Cloudy
1:00 AM 48.2 °F 48.2 °F 100% 30.16 in 15.0 mi WNW 2.3 mph - N/A   Scattered Clouds
2:00 AM 50.0 °F 48.2 °F 94% 30.15 in 15.0 mi SSW 3.5 mph - N/A   Scattered Clouds
3:00 AM 48.2 °F 48.2 °F 100% 30.15 in 15.0 mi Calm Calm - N/A   Scattered Clouds
4:00 AM 50.0 °F 48.2 °F 94% 30.16 in 15.0 mi Calm Calm - N/A   Mostly Cloudy
5:00 AM 49 °F 48 °F 94% 30.16 in 19 mi NNW 2.3 mph - -   Mostly Cloudy
5:00 AM 48.2 °F 48.2 °F 100% 30.16 in 20.0 mi NNW 2.3 mph - N/A   Mostly Cloudy
6:00 AM 50.0 °F 48.2 °F 94% 30.16 in 25.0 mi Calm Calm - N/A   Mostly Cloudy
7:00 AM 51.8 °F 50.0 °F 94% 30.17 in 25.0 mi Calm Calm - N/A   Mostly Cloudy
8:00 AM 51.8 °F 50.0 °F 94% 30.17 in 15.0 mi South 2.3 mph - N/A   Mostly Cloudy
9:00 AM 53.6 °F 51.8 °F 94% 30.18 in 10.0 mi SW 4.6 mph - N/A   Overcast
10:00 AM 57.2 °F 51.8 °F 82% 30.18 in 15.0 mi SSW 5.8 mph - N/A   Mostly Cloudy
11:00 AM 59 °F 51 °F 68% 30.18 in 19 mi SSW 4.6 mph - -   Mostly Cloudy
11:00 AM 59.0 °F 51.8 °F 77% 30.18 in 20.0 mi SSW 6.9 mph - N/A   Mostly Cloudy
12:00 PM 60.8 °F 50.0 °F 68% 30.18 in 15.0 mi SSW 10.4 mph - N/A   Mostly Cloudy
1:00 PM 60.8 °F 51.8 °F 72% 30.18 in 20.0 mi WSW 9.2 mph - N/A   Mostly Cloudy
2:00 PM 62.6 °F 50.0 °F 63% 30.18 in 15.0 mi WSW 9.2 mph - N/A   Mostly Cloudy
3:00 PM 64.4 °F 46.4 °F 52% 30.18 in 15.0 mi SSW 6.9 mph - N/A   Mostly Cloudy
4:00 PM 64.4 °F 50.0 °F 59% 30.16 in 15.0 mi SSE 6.9 mph - N/A   Mostly Cloudy
5:00 PM 67 °F 49 °F 41% 30.17 in 19 mi SW 8.1 mph - -   Partly Cloudy
5:00 PM 66.2 °F 48.2 °F 52% 30.17 in 20.0 mi WSW 6.9 mph - N/A   Mostly Cloudy
6:00 PM 66.2 °F 48.2 °F 52% 30.16 in 20.0 mi WSW 11.5 mph - N/A   Mostly Cloudy
7:00 PM 64.4 °F 50.0 °F 59% 30.16 in 20.0 mi SSW 11.5 mph - N/A   Mostly Cloudy
8:00 PM 62.6 °F 48.2 °F 59% 30.17 in 20.0 mi SSW 8.1 mph - N/A   Mostly Cloudy
9:00 PM 60.8 °F 46.4 °F 59% 30.17 in 20.0 mi SSW 4.6 mph - N/A   Mostly Cloudy
10:00 PM 59.0 °F 50.0 °F 72% 30.17 in 15.0 mi WSW 9.2 mph - N/A   Overcast
11:00 PM 57 °F 50 °F 70% 30.18 in 15 mi SW 6.9 mph - -   Overcast
11:00 PM 57.2 °F 50.0 °F 77% 30.18 in 15.0 mi SW 6.9 mph - N/A   Overcast
11:51 PM 55.4 °F 50.0 °F 82% 30.18 in 15.0 mi SSW 9.2 mph - N/A Rain Light Rain